Wetterdaten: Freitag, 19.07.2013
Datum Zeit Temperatur Luftfeuchte Luftdruck Regen Wind Richtung Richtung Taupunkt Windchill Windben
19.07.2013 00:00 16,8 C 70 % 1024,1 hPa 0,0 l/m 0,2 km/h (0 Bft) O-SO 112 11,3 C 17,0 C 0,0 km/h (0 Bft)
19.07.2013 00:05 16,6 C 70 % 1024,1 hPa 0,0 l/m 0,0 km/h (0 Bft) O-NO 67 11,1 C 16,5 C 0,0 km/h (0 Bft)
19.07.2013 00:10 16,6 C 71 % 1024,1 hPa 0,0 l/m 0,3 km/h (0 Bft) NO 45 11,3 C 16,4 C 2,1 km/h (1 Bft)
19.07.2013 00:15 16,6 C 70 % 1024,1 hPa 0,0 l/m 0,6 km/h (0 Bft) O 90 11,1 C 16,3 C 0,0 km/h (0 Bft)
19.07.2013 00:20 16,2 C 69 % 1024,0 hPa 0,0 l/m 0,5 km/h (0 Bft) O 90 10,5 C 16,1 C 0,0 km/h (0 Bft)
19.07.2013 00:25 16,0 C 70 % 1024,0 hPa 0,0 l/m 0,0 km/h (0 Bft) SO 135 10,5 C 15,9 C 0,0 km/h (0 Bft)
19.07.2013 00:30 15,8 C 72 % 1024,0 hPa 0,0 l/m 0,0 km/h (0 Bft) O-SO 112 10,8 C 15,7 C 0,0 km/h (0 Bft)
19.07.2013 00:35 15,6 C 73 % 1024,0 hPa 0,0 l/m 0,0 km/h (0 Bft) NO 45 10,8 C 15,5 C 0,0 km/h (0 Bft)
19.07.2013 00:40 15,5 C 73 % 1024,0 hPa 0,0 l/m 0,0 km/h (0 Bft) N-NW 337 10,7 C 15,4 C 0,0 km/h (0 Bft)
19.07.2013 00:45 15,3 C 73 % 1024,0 hPa 0,0 l/m 0,0 km/h (0 Bft) N 360 10,5 C 15,2 C 0,0 km/h (0 Bft)
19.07.2013 00:50 15,3 C 73 % 1024,0 hPa 0,0 l/m 0,0 km/h (0 Bft) N 360 10,5 C 15,0 C 0,0 km/h (0 Bft)
19.07.2013 00:55 15,2 C 73 % 1024,0 hPa 0,0 l/m 0,0 km/h (0 Bft) N 360 10,4 C 14,9 C 0,0 km/h (0 Bft)
19.07.2013 01:00 15,0 C 74 % 1023,9 hPa 0,0 l/m 0,0 km/h (0 Bft) N 360 10,4 C 14,8 C 0,0 km/h (0 Bft)
19.07.2013 01:05 14,8 C 74 % 1023,9 hPa 0,0 l/m 0,0 km/h (0 Bft) N 360 10,2 C 14,5 C 0,0 km/h (0 Bft)
19.07.2013 01:10 15,0 C 75 % 1023,9 hPa 0,0 l/m 0,0 km/h (0 Bft) O 90 10,6 C 14,5 C 0,0 km/h (0 Bft)
19.07.2013 01:15 15,3 C 75 % 1023,9 hPa 0,0 l/m 0,3 km/h (0 Bft) O 90 10,9 C 14,5 C 0,0 km/h (0 Bft)
19.07.2013 01:20 15,4 C 75 % 1023,8 hPa 0,0 l/m 1,1 km/h (1 Bft) O-SO 112 11,0 C 14,5 C 2,6 km/h (1 Bft)
19.07.2013 01:25 15,4 C 75 % 1023,8 hPa 0,0 l/m 2,4 km/h (1 Bft) O-SO 112 11,0 C 14,7 C 4,0 km/h (1 Bft)
19.07.2013 01:30 15,1 C 75 % 1023,8 hPa 0,0 l/m 2,3 km/h (1 Bft) O 90 10,7 C 14,7 C 2,6 km/h (1 Bft)
19.07.2013 01:35 15,0 C 75 % 1023,8 hPa 0,0 l/m 1,0 km/h (0 Bft) O-SO 112 10,6 C 14,7 C 0,0 km/h (0 Bft)
19.07.2013 01:40 14,5 C 75 % 1023,8 hPa 0,0 l/m 0,3 km/h (0 Bft) N 360 10,1 C 14,5 C 0,0 km/h (0 Bft)
19.07.2013 01:45 14,3 C 76 % 1023,8 hPa 0,0 l/m 0,0 km/h (0 Bft) NO 45 10,1 C 14,2 C 0,0 km/h (0 Bft)
19.07.2013 01:50 14,2 C 76 % 1023,8 hPa 0,0 l/m 0,0 km/h (0 Bft) NO 45 10,0 C 13,9 C 0,0 km/h (0 Bft)
19.07.2013 01:55 14,3 C 76 % 1023,8 hPa 0,0 l/m 0,8 km/h (0 Bft) O-NO 67 10,1 C 13,8 C 3,7 km/h (1 Bft)
19.07.2013 02:00 14,7 C 76 % 1023,7 hPa 0,0 l/m 1,1 km/h (1 Bft) O 90 10,5 C 13,8 C 0,0 km/h (0 Bft)
19.07.2013 02:05 14,2 C 76 % 1023,7 hPa 0,0 l/m 0,6 km/h (0 Bft) O 90 10,0 C 13,8 C 0,0 km/h (0 Bft)
19.07.2013 02:10 14,6 C 77 % 1023,7 hPa 0,0 l/m 1,0 km/h (0 Bft) O-SO 112 10,6 C 13,8 C 2,3 km/h (1 Bft)
19.07.2013 02:15 14,6 C 77 % 1023,7 hPa 0,0 l/m 2,1 km/h (1 Bft) O 90 10,6 C 13,9 C 1,9 km/h (1 Bft)
19.07.2013 02:20 14,5 C 77 % 1023,6 hPa 0,0 l/m 1,9 km/h (1 Bft) O-SO 112 10,5 C 13,9 C 1,9 km/h (1 Bft)
19.07.2013 02:25 14,3 C 77 % 1023,6 hPa 0,0 l/m 1,1 km/h (1 Bft) O 90 10,3 C 13,9 C 1,8 km/h (1 Bft)
19.07.2013 02:30 14,0 C 77 % 1023,6 hPa 0,0 l/m 0,6 km/h (0 Bft) O 90 10,0 C 13,9 C 0,0 km/h (0 Bft)
19.07.2013 02:35 13,6 C 77 % 1023,6 hPa 0,0 l/m 0,2 km/h (0 Bft) N 360 9,6 C 13,6 C 1,6 km/h (1 Bft)
19.07.2013 02:40 13,7 C 77 % 1023,6 hPa 0,0 l/m 0,3 km/h (0 Bft) O 90 9,7 C 13,5 C 0,0 km/h (0 Bft)
19.07.2013 02:45 13,5 C 77 % 1023,6 hPa 0,0 l/m 0,3 km/h (0 Bft) O 90 9,5 C 13,2 C 0,0 km/h (0 Bft)
19.07.2013 02:50 13,5 C 78 % 1023,6 hPa 0,0 l/m 0,0 km/h (0 Bft) O 90 9,7 C 13,2 C 0,0 km/h (0 Bft)
19.07.2013 02:55 13,5 C 78 % 1023,6 hPa 0,0 l/m 0,0 km/h (0 Bft) O 90 9,7 C 13,0 C 0,0 km/h (0 Bft)
19.07.2013 03:00 13,3 C 78 % 1023,4 hPa 0,0 l/m 0,0 km/h (0 Bft) O 90 9,5 C 12,7 C 0,0 km/h (0 Bft)
19.07.2013 03:05 13,2 C 78 % 1023,4 hPa 0,0 l/m 0,0 km/h (0 Bft) O 90 9,4 C 12,7 C 0,0 km/h (0 Bft)
19.07.2013 03:10 13,1 C 78 % 1023,4 hPa 0,0 l/m 0,0 km/h (0 Bft) O 90 9,4 C 12,5 C 0,0 km/h (0 Bft)
19.07.2013 03:15 13,0 C 78 % 1023,4 hPa 0,0 l/m 0,0 km/h (0 Bft) O-NO 67 9,3 C 12,4 C 0,0 km/h (0 Bft)
19.07.2013 03:20 12,8 C 79 % 1023,3 hPa 0,0 l/m 0,0 km/h (0 Bft) O-NO 67 9,2 C 12,4 C 0,0 km/h (0 Bft)
19.07.2013 03:25 12,5 C 79 % 1023,3 hPa 0,0 l/m 0,0 km/h (0 Bft) W-SW 247 9,0 C 12,2 C 0,0 km/h (0 Bft)
19.07.2013 03:30 12,5 C 80 % 1023,3 hPa 0,0 l/m 0,0 km/h (0 Bft) W-SW 247 9,1 C 12,1 C 0,0 km/h (0 Bft)
19.07.2013 03:35 12,5 C 82 % 1023,3 hPa 0,0 l/m 0,0 km/h (0 Bft) NO 45 9,5 C 12,0 C 0,0 km/h (0 Bft)
19.07.2013 03:40 12,6 C 82 % 1023,4 hPa 0,0 l/m 0,2 km/h (0 Bft) O-SO 112 9,6 C 12,0 C 0,0 km/h (0 Bft)
19.07.2013 03:45 12,8 C 82 % 1023,4 hPa 0,0 l/m 0,2 km/h (0 Bft) SO 135 9,8 C 12,0 C 0,0 km/h (0 Bft)
19.07.2013 03:50 12,8 C 82 % 1023,4 hPa 0,0 l/m 0,0 km/h (0 Bft) O-SO 112 9,8 C 12,0 C 0,0 km/h (0 Bft)
19.07.2013 03:55 12,7 C 82 % 1023,4 hPa 0,0 l/m 0,0 km/h (0 Bft) O-SO 112 9,7 C 12,0 C 0,0 km/h (0 Bft)
19.07.2013 04:00 12,8 C 82 % 1023,2 hPa 0,0 l/m 0,0 km/h (0 Bft) O-SO 112 9,8 C 12,0 C 0,0 km/h (0 Bft)
19.07.2013 04:05 12,6 C 82 % 1023,2 hPa 0,0 l/m 0,0 km/h (0 Bft) O 90 9,6 C 12,0 C 0,0 km/h (0 Bft)
19.07.2013 04:10 12,5 C 82 % 1023,2 hPa 0,0 l/m 0,0 km/h (0 Bft) S-SO 157 9,5 C 12,0 C 0,0 km/h (0 Bft)
19.07.2013 04:15 12,6 C 82 % 1023,2 hPa 0,0 l/m 0,0 km/h (0 Bft) W 270 9,6 C 12,2 C 0,0 km/h (0 Bft)
19.07.2013 04:20 12,6 C 82 % 1023,2 hPa 0,0 l/m 0,0 km/h (0 Bft) S 180 9,6 C 12,3 C 0,0 km/h (0 Bft)
19.07.2013 04:25 12,6 C 81 % 1023,2 hPa 0,0 l/m 0,0 km/h (0 Bft) S 180 9,4 C 12,4 C 0,0 km/h (0 Bft)
19.07.2013 04:30 12,7 C 82 % 1023,2 hPa 0,0 l/m 0,0 km/h (0 Bft) N 360 9,7 C 12,4 C 0,0 km/h (0 Bft)
19.07.2013 04:35 12,7 C 82 % 1023,2 hPa 0,0 l/m 0,2 km/h (0 Bft) S 180 9,7 C 12,2 C 1,6 km/h (1 Bft)
19.07.2013 04:40 12,9 C 82 % 1023,1 hPa 0,0 l/m 0,3 km/h (0 Bft) O 90 9,9 C 12,3 C 2,1 km/h (1 Bft)
19.07.2013 04:45 13,0 C 81 % 1023,1 hPa 0,0 l/m 0,3 km/h (0 Bft) O-NO 67 9,8 C 12,4 C 0,0 km/h (0 Bft)
19.07.2013 04:50 12,8 C 81 % 1023,1 hPa 0,0 l/m 0,2 km/h (0 Bft) W-NW 292 9,6 C 12,4 C 0,0 km/h (0 Bft)
19.07.2013 04:55 12,9 C 82 % 1023,1 hPa 0,0 l/m 0,2 km/h (0 Bft) NO 45 9,9 C 12,3 C 0,0 km/h (0 Bft)
19.07.2013 05:00 12,9 C 83 % 1023,1 hPa 0,0 l/m 0,2 km/h (0 Bft) N-NO 22 10,1 C 12,3 C 0,0 km/h (0 Bft)
19.07.2013 05:05 12,7 C 83 % 1023,1 hPa 0,0 l/m 0,0 km/h (0 Bft) NO 45 9,9 C 12,3 C 0,0 km/h (0 Bft)
19.07.2013 05:10 12,5 C 83 % 1023,1 hPa 0,0 l/m 0,0 km/h (0 Bft) S-SW 202 9,7 C 12,3 C 0,0 km/h (0 Bft)
19.07.2013 05:15 12,4 C 82 % 1023,1 hPa 0,0 l/m 0,0 km/h (0 Bft) S 180 9,4 C 12,3 C 0,0 km/h (0 Bft)
19.07.2013 05:20 12,3 C 83 % 1023,1 hPa 0,0 l/m 0,0 km/h (0 Bft) N-NW 337 9,5 C 12,1 C 0,0 km/h (0 Bft)
19.07.2013 05:25 12,1 C 83 % 1023,1 hPa 0,0 l/m 0,0 km/h (0 Bft) NO 45 9,3 C 12,0 C 0,0 km/h (0 Bft)
19.07.2013 05:30 12,2 C 83 % 1023,1 hPa 0,0 l/m 0,5 km/h (0 Bft) O 90 9,4 C 11,8 C 2,3 km/h (1 Bft)
19.07.2013 05:35 12,3 C 83 % 1023,1 hPa 0,0 l/m 0,5 km/h (0 Bft) O 90 9,5 C 11,8 C 0,0 km/h (0 Bft)
19.07.2013 05:40 12,2 C 83 % 1023,1 hPa 0,0 l/m 0,3 km/h (0 Bft) O-NO 67 9,4 C 11,7 C 0,0 km/h (0 Bft)
19.07.2013 05:45 12,3 C 83 % 1023,1 hPa 0,0 l/m 0,0 km/h (0 Bft) O 90 9,5 C 11,7 C 0,0 km/h (0 Bft)
19.07.2013 05:50 12,3 C 83 % 1023,1 hPa 0,0 l/m 0,0 km/h (0 Bft) O-SO 112 9,5 C 11,8 C 0,0 km/h (0 Bft)
19.07.2013 05:55 12,2 C 83 % 1023,1 hPa 0,0 l/m 0,0 km/h (0 Bft) O 90 9,4 C 11,9 C 0,0 km/h (0 Bft)
19.07.2013 06:00 12,3 C 83 % 1023,0 hPa 0,0 l/m 0,0 km/h (0 Bft) NO 45 9,5 C 11,9 C 0,0 km/h (0 Bft)
19.07.2013 06:05 12,3 C 83 % 1023,0 hPa 0,0 l/m 0,0 km/h (0 Bft) O 90 9,5 C 12,5 C 0,0 km/h (0 Bft)
19.07.2013 06:10 12,4 C 83 % 1023,0 hPa 0,0 l/m 0,0 km/h (0 Bft) O 90 9,6 C 12,9 C 0,0 km/h (0 Bft)
19.07.2013 06:15 12,7 C 83 % 1023,0 hPa 0,0 l/m 0,0 km/h (0 Bft) O 90 9,9 C 13,6 C 0,0 km/h (0 Bft)
19.07.2013 06:20 13,6 C 82 % 1022,9 hPa 0,0 l/m 0,0 km/h (0 Bft) O-SO 112 10,6 C 14,1 C 0,0 km/h (0 Bft)
19.07.2013 06:25 14,7 C 80 % 1022,9 hPa 0,0 l/m 0,0 km/h (0 Bft) W-NW 292 11,3 C 14,1 C 0,0 km/h (0 Bft)
19.07.2013 06:30 15,4 C 79 % 1022,9 hPa 0,0 l/m 0,2 km/h (0 Bft) O-NO 67 11,8 C 13,9 C 0,0 km/h (0 Bft)
19.07.2013 06:35 14,8 C 78 % 1022,9 hPa 0,0 l/m 0,0 km/h (0 Bft) W 270 11,0 C 14,9 C 0,0 km/h (0 Bft)
19.07.2013 06:40 14,6 C 78 % 1023,2 hPa 0,0 l/m 0,0 km/h (0 Bft) W-SW 247 10,8 C 15,8 C 0,0 km/h (0 Bft)
19.07.2013 06:45 16,2 C 77 % 1023,2 hPa 0,0 l/m 0,0 km/h (0 Bft) W-SW 247 12,2 C 16,9 C 0,0 km/h (0 Bft)
19.07.2013 06:50 16,9 C 74 % 1023,2 hPa 0,0 l/m 0,0 km/h (0 Bft) N-NO 22 12,2 C 17,7 C 0,0 km/h (0 Bft)
19.07.2013 06:55 17,8 C 72 % 1023,2 hPa 0,0 l/m 0,2 km/h (0 Bft) NO 45 12,7 C 18,3 C 0,0 km/h (0 Bft)
19.07.2013 07:00 18,6 C 71 % 1023,2 hPa 0,0 l/m 0,2 km/h (0 Bft) NO 45 13,2 C 18,8 C 0,0 km/h (0 Bft)
19.07.2013 07:05 19,4 C 68 % 1023,2 hPa 0,0 l/m 0,0 km/h (0 Bft) NO 45 13,3 C 19,9 C 0,0 km/h (0 Bft)
19.07.2013 07:10 19,7 C 67 % 1023,2 hPa 0,0 l/m 0,0 km/h (0 Bft) NO 45 13,4 C 20,7 C 0,0 km/h (0 Bft)
19.07.2013 07:15 20,0 C 64 % 1023,2 hPa 0,0 l/m 0,0 km/h (0 Bft) O 90 13,0 C 21,3 C 0,0 km/h (0 Bft)
19.07.2013 07:20 20,3 C 63 % 1023,3 hPa 0,0 l/m 0,0 km/h (0 Bft) O 90 13,0 C 21,8 C 0,0 km/h (0 Bft)
19.07.2013 07:25 20,6 C 60 % 1023,3 hPa 0,0 l/m 0,0 km/h (0 Bft) N-NO 22 12,6 C 22,5 C 0,0 km/h (0 Bft)
19.07.2013 07:30 20,5 C 59 % 1023,3 hPa 0,0 l/m 0,0 km/h (0 Bft) N-NO 22 12,2 C 22,8 C 0,0 km/h (0 Bft)
19.07.2013 07:35 21,4 C 59 % 1023,3 hPa 0,0 l/m 0,0 km/h (0 Bft) NO 45 13,0 C 22,8 C 0,0 km/h (0 Bft)
19.07.2013 07:40 22,0 C 59 % 1023,3 hPa 0,0 l/m 0,0 km/h (0 Bft) NO 45 13,6 C 23,0 C 0,0 km/h (0 Bft)
19.07.2013 07:45 22,7 C 58 % 1023,3 hPa 0,0 l/m 0,0 km/h (0 Bft) N-NW 337 14,0 C 23,9 C 0,0 km/h (0 Bft)
19.07.2013 07:50 22,7 C 57 % 1023,3 hPa 0,0 l/m 0,0 km/h (0 Bft) O-SO 112 13,7 C 24,3 C 0,0 km/h (0 Bft)
19.07.2013 07:55 23,2 C 56 % 1023,3 hPa 0,0 l/m 0,0 km/h (0 Bft) NO 45 13,9 C 24,8 C 0,0 km/h (0 Bft)
19.07.2013 08:00 23,2 C 55 % 1023,5 hPa 0,0 l/m 0,0 km/h (0 Bft) N-NO 22 13,6 C 25,1 C 0,0 km/h (0 Bft)
19.07.2013 08:05 23,5 C 56 % 1023,5 hPa 0,0 l/m 0,0 km/h (0 Bft) W-NW 292 14,2 C 25,6 C 0,0 km/h (0 Bft)
19.07.2013 08:10 23,2 C 56 % 1023,5 hPa 0,0 l/m 0,0 km/h (0 Bft) N 360 13,9 C 25,9 C 0,0 km/h (0 Bft)
19.07.2013 08:15 24,4 C 53 % 1023,5 hPa 0,0 l/m 0,0 km/h (0 Bft) O 90 14,2 C 26,3 C 0,0 km/h (0 Bft)
19.07.2013 08:20 24,3 C 52 % 1023,6 hPa 0,0 l/m 0,0 km/h (0 Bft) S-SO 157 13,8 C 26,6 C 0,0 km/h (0 Bft)
19.07.2013 08:25 25,0 C 52 % 1023,6 hPa 0,0 l/m 0,2 km/h (0 Bft) N-NW 337 14,4 C 26,9 C 0,0 km/h (0 Bft)
19.07.2013 08:30 24,8 C 49 % 1023,6 hPa 0,0 l/m 0,3 km/h (0 Bft) O-NO 67 13,3 C 26,8 C 2,1 km/h (1 Bft)
19.07.2013 08:35 25,5 C 47 % 1023,6 hPa 0,0 l/m 0,3 km/h (0 Bft) N 360 13,3 C 27,1 C 2,1 km/h (1 Bft)
19.07.2013 08:40 25,4 C 49 % 1023,7 hPa 0,0 l/m 0,5 km/h (0 Bft) N 360 13,9 C 27,1 C 0,0 km/h (0 Bft)
19.07.2013 08:45 26,0 C 48 % 1023,7 hPa 0,0 l/m 0,5 km/h (0 Bft) S-SW 202 14,1 C 27,5 C 0,0 km/h (0 Bft)
19.07.2013 08:50 26,0 C 46 % 1023,7 hPa 0,0 l/m 0,2 km/h (0 Bft) O-SO 112 13,5 C 27,7 C 0,0 km/h (0 Bft)
19.07.2013 08:55 26,1 C 47 % 1023,7 hPa 0,0 l/m 1,0 km/h (0 Bft) NW 315 13,9 C 27,5 C 0,0 km/h (0 Bft)
19.07.2013 09:00 25,8 C 47 % 1023,9 hPa 0,0 l/m 1,0 km/h (0 Bft) NO 45 13,6 C 27,4 C 1,8 km/h (1 Bft)
19.07.2013 09:05 25,5 C 48 % 1023,9 hPa 0,0 l/m 0,6 km/h (0 Bft) W 270 13,7 C 27,7 C 0,0 km/h (0 Bft)
19.07.2013 09:10 25,4 C 45 % 1023,9 hPa 0,0 l/m 1,0 km/h (0 Bft) N-NO 22 12,6 C 27,8 C 3,2 km/h (1 Bft)
19.07.2013 09:15 25,5 C 48 % 1023,9 hPa 0,0 l/m 1,3 km/h (1 Bft) N 360 13,7 C 27,7 C 2,9 km/h (1 Bft)
19.07.2013 09:20 25,9 C 45 % 1024,1 hPa 0,0 l/m 1,6 km/h (1 Bft) W 270 13,0 C 27,6 C 2,3 km/h (1 Bft)
19.07.2013 09:25 26,1 C 40 % 1024,1 hPa 0,0 l/m 1,6 km/h (1 Bft) N-NW 337 11,4 C 27,8 C 4,8 km/h (1 Bft)
19.07.2013 09:30 26,2 C 43 % 1024,1 hPa 0,0 l/m 1,6 km/h (1 Bft) W-NW 292 12,6 C 27,6 C 3,9 km/h (1 Bft)
19.07.2013 09:35 25,8 C 42 % 1024,1 hPa 0,0 l/m 2,6 km/h (1 Bft) N-NW 337 11,9 C 27,3 C 5,6 km/h (1 Bft)
19.07.2013 09:40 26,4 C 41 % 1023,9 hPa 0,0 l/m 2,4 km/h (1 Bft) NW 315 12,1 C 27,4 C 3,7 km/h (1 Bft)
19.07.2013 09:45 26,9 C 42 % 1023,9 hPa 0,0 l/m 2,6 km/h (1 Bft) W-NW 292 12,9 C 27,2 C 5,8 km/h (2 Bft)
19.07.2013 09:50 26,5 C 42 % 1023,9 hPa 0,0 l/m 2,9 km/h (1 Bft) S-SW 202 12,5 C 27,3 C 3,1 km/h (1 Bft)
19.07.2013 09:55 26,2 C 41 % 1023,9 hPa 0,0 l/m 3,4 km/h (1 Bft) W-NW 292 11,9 C 26,8 C 6,9 km/h (2 Bft)
19.07.2013 10:00 26,6 C 41 % 1023,9 hPa 0,0 l/m 3,9 km/h (1 Bft) W-NW 292 12,2 C 26,8 C 6,4 km/h (2 Bft)
19.07.2013 10:05 26,2 C 41 % 1023,9 hPa 0,0 l/m 3,9 km/h (1 Bft) W-NW 292 11,9 C 26,7 C 8,4 km/h (2 Bft)
19.07.2013 10:10 26,6 C 40 % 1023,9 hPa 0,0 l/m 4,0 km/h (1 Bft) N-NW 337 11,9 C 26,6 C 5,5 km/h (1 Bft)
19.07.2013 10:15 26,3 C 42 % 1023,9 hPa 0,0 l/m 3,4 km/h (1 Bft) W 270 12,3 C 27,1 C 3,7 km/h (1 Bft)
19.07.2013 10:20 25,5 C 41 % 1024,1 hPa 0,0 l/m 3,4 km/h (1 Bft) S-SW 202 11,3 C 27,1 C 4,0 km/h (1 Bft)
19.07.2013 10:25 25,8 C 43 % 1024,1 hPa 0,0 l/m 4,0 km/h (1 Bft) W-NW 292 12,3 C 27,0 C 10,0 km/h (2 Bft)
19.07.2013 10:30 26,2 C 40 % 1024,1 hPa 0,0 l/m 4,7 km/h (1 Bft) N 360 11,5 C 26,6 C 6,8 km/h (2 Bft)
19.07.2013 10:35 26,2 C 40 % 1024,1 hPa 0,0 l/m 4,7 km/h (1 Bft) W 270 11,5 C 26,6 C 11,6 km/h (2 Bft)
19.07.2013 10:40 25,5 C 42 % 1024,1 hPa 0,0 l/m 3,9 km/h (1 Bft) N-NO 22 11,6 C 26,7 C 4,2 km/h (1 Bft)
19.07.2013 10:45 25,6 C 44 % 1024,1 hPa 0,0 l/m 3,9 km/h (1 Bft) W-NW 292 12,4 C 27,0 C 4,3 km/h (1 Bft)
19.07.2013 10:50 26,0 C 41 % 1024,1 hPa 0,0 l/m 4,0 km/h (1 Bft) S-SW 202 11,7 C 27,1 C 3,1 km/h (1 Bft)
19.07.2013 10:55 26,2 C 40 % 1024,1 hPa 0,0 l/m 3,7 km/h (1 Bft) N 360 11,5 C 27,2 C 2,3 km/h (1 Bft)
19.07.2013 11:00 25,9 C 44 % 1024,2 hPa 0,0 l/m 4,3 km/h (1 Bft) N 360 12,7 C 27,1 C 4,3 km/h (1 Bft)
19.07.2013 11:05 26,3 C 41 % 1024,2 hPa 0,0 l/m 4,3 km/h (1 Bft) N-NW 337 12,0 C 27,1 C 1,6 km/h (1 Bft)
19.07.2013 11:10 26,4 C 41 % 1024,2 hPa 0,0 l/m 3,9 km/h (1 Bft) N 360 12,1 C 27,4 C 3,1 km/h (1 Bft)
19.07.2013 11:15 26,0 C 43 % 1024,2 hPa 0,0 l/m 3,7 km/h (1 Bft) N 360 12,4 C 27,6 C 4,5 km/h (1 Bft)
19.07.2013 11:20 26,6 C 43 % 1024,3 hPa 0,0 l/m 4,5 km/h (1 Bft) O-SO 112 13,0 C 27,5 C 10,3 km/h (2 Bft)
19.07.2013 11:25 26,4 C 43 % 1024,3 hPa 0,0 l/m 4,7 km/h (1 Bft) W 270 12,8 C 27,1 C 3,7 km/h (1 Bft)
19.07.2013 11:30 26,8 C 43 % 1024,3 hPa 0,0 l/m 4,2 km/h (1 Bft) W 270 13,2 C 27,3 C 4,7 km/h (1 Bft)
19.07.2013 11:35 26,9 C 41 % 1024,3 hPa 0,0 l/m 4,3 km/h (1 Bft) N-NW 337 12,5 C 27,3 C 8,9 km/h (2 Bft)
19.07.2013 11:40 26,5 C 42 % 1024,4 hPa 0,0 l/m 4,8 km/h (1 Bft) NW 315 12,5 C 27,2 C 5,1 km/h (1 Bft)
19.07.2013 11:45 26,9 C 42 % 1024,4 hPa 0,0 l/m 5,5 km/h (1 Bft) W-NW 292 12,9 C 27,0 C 7,9 km/h (2 Bft)
19.07.2013 11:50 26,5 C 43 % 1024,4 hPa 0,0 l/m 5,8 km/h (2 Bft) W-NW 292 12,9 C 26,8 C 3,4 km/h (1 Bft)
19.07.2013 11:55 26,8 C 42 % 1024,4 hPa 0,0 l/m 4,5 km/h (1 Bft) NO 45 12,8 C 27,3 C 1,8 km/h (1 Bft)
19.07.2013 12:00 27,6 C 45 % 1024,4 hPa 0,0 l/m 3,4 km/h (1 Bft) W-NW 292 14,6 C 27,7 C 4,8 km/h (1 Bft)
19.07.2013 12:05 27,0 C 43 % 1024,4 hPa 0,0 l/m 3,5 km/h (1 Bft) W-NW 292 13,3 C 28,3 C 11,9 km/h (2 Bft)
19.07.2013 12:10 27,6 C 42 % 1024,4 hPa 0,0 l/m 4,5 km/h (1 Bft) N 360 13,5 C 27,9 C 3,5 km/h (1 Bft)
19.07.2013 12:15 26,4 C 40 % 1024,4 hPa 0,0 l/m 5,1 km/h (1 Bft) N-NO 22 11,7 C 27,7 C 3,4 km/h (1 Bft)
19.07.2013 12:20 26,6 C 41 % 1024,3 hPa 0,0 l/m 4,3 km/h (1 Bft) N-NO 22 12,2 C 27,8 C 6,6 km/h (2 Bft)
19.07.2013 12:25 27,4 C 40 % 1024,3 hPa 0,0 l/m 4,0 km/h (1 Bft) NO 45 12,6 C 27,9 C 8,7 km/h (2 Bft)
19.07.2013 12:30 27,0 C 40 % 1024,3 hPa 0,0 l/m 4,3 km/h (1 Bft) NO 45 12,2 C 28,1 C 8,2 km/h (2 Bft)
19.07.2013 12:35 27,2 C 41 % 1024,3 hPa 0,0 l/m 5,3 km/h (1 Bft) N-NW 337 12,8 C 28,1 C 12,9 km/h (3 Bft)
19.07.2013 12:40 27,3 C 41 % 1024,2 hPa 0,0 l/m 4,5 km/h (1 Bft) N 360 12,9 C 28,3 C 3,4 km/h (1 Bft)
19.07.2013 12:45 26,6 C 41 % 1024,2 hPa 0,0 l/m 5,0 km/h (1 Bft) N 360 12,2 C 28,5 C 9,5 km/h (2 Bft)
19.07.2013 12:50 26,8 C 40 % 1024,2 hPa 0,0 l/m 5,5 km/h (1 Bft) O-SO 112 12,1 C 27,8 C 5,1 km/h (1 Bft)
19.07.2013 12:55 26,4 C 43 % 1024,2 hPa 0,0 l/m 4,8 km/h (1 Bft) N 360 12,8 C 28,2 C 4,7 km/h (1 Bft)
19.07.2013 13:00 26,9 C 42 % 1024,3 hPa 0,0 l/m 3,4 km/h (1 Bft) W-SW 247 12,9 C 28,3 C 5,0 km/h (1 Bft)
19.07.2013 13:05 27,1 C 40 % 1024,3 hPa 0,0 l/m 3,7 km/h (1 Bft) NW 315 12,3 C 28,7 C 9,5 km/h (2 Bft)
19.07.2013 13:10 26,6 C 42 % 1024,3 hPa 0,0 l/m 5,0 km/h (1 Bft) W-NW 292 12,6 C 28,3 C 9,3 km/h (2 Bft)
19.07.2013 13:15 26,7 C 42 % 1024,3 hPa 0,0 l/m 6,0 km/h (2 Bft) W-NW 292 12,7 C 28,2 C 7,6 km/h (2 Bft)
19.07.2013 13:20 25,9 C 44 % 1024,3 hPa 0,0 l/m 5,1 km/h (1 Bft) NW 315 12,7 C 28,3 C 9,5 km/h (2 Bft)
19.07.2013 13:25 26,0 C 46 % 1024,3 hPa 0,0 l/m 4,7 km/h (1 Bft) W-NW 292 13,5 C 27,4 C 5,3 km/h (1 Bft)
19.07.2013 13:30 25,6 C 46 % 1024,3 hPa 0,0 l/m 5,6 km/h (1 Bft) N-NW 337 13,1 C 27,5 C 7,7 km/h (2 Bft)
19.07.2013 13:35 26,9 C 46 % 1024,3 hPa 0,0 l/m 6,0 km/h (2 Bft) O-SO 112 14,3 C 27,4 C 7,7 km/h (2 Bft)
19.07.2013 13:40 27,3 C 43 % 1024,2 hPa 0,0 l/m 6,0 km/h (2 Bft) N-NW 337 13,6 C 28,0 C 8,0 km/h (2 Bft)
19.07.2013 13:45 26,3 C 42 % 1024,2 hPa 0,0 l/m 6,0 km/h (2 Bft) O-SO 112 12,3 C 28,3 C 9,2 km/h (2 Bft)
19.07.2013 13:50 26,9 C 41 % 1024,2 hPa 0,0 l/m 5,5 km/h (1 Bft) W 270 12,5 C 28,3 C 12,1 km/h (2 Bft)
19.07.2013 13:55 27,5 C 40 % 1024,2 hPa 0,0 l/m 5,5 km/h (1 Bft) S-SO 157 12,7 C 28,7 C 13,4 km/h (3 Bft)
19.07.2013 14:00 28,0 C 40 % 1024,1 hPa 0,0 l/m 6,6 km/h (2 Bft) N-NW 337 13,1 C 29,0 C 8,4 km/h (2 Bft)
19.07.2013 14:05 27,6 C 40 % 1024,1 hPa 0,0 l/m 5,8 km/h (2 Bft) NO 45 12,8 C 29,3 C 14,0 km/h (3 Bft)
19.07.2013 14:10 27,6 C 41 % 1024,1 hPa 0,0 l/m 6,3 km/h (2 Bft) NW 315 13,1 C 29,3 C 9,5 km/h (2 Bft)
19.07.2013 14:17 28,1 C 39 % 1024,1 hPa 0,0 l/m 6,4 km/h (2 Bft) W 270 12,8 C 29,5 C 16,7 km/h (3 Bft)
19.07.2013 14:20 28,1 C 39 % 1024,1 hPa 0,0 l/m 6,4 km/h (2 Bft) W 270 12,8 C 29,5 C 6,4 km/h (2 Bft)
19.07.2013 14:25 26,5 C 42 % 1024,1 hPa 0,0 l/m 6,1 km/h (2 Bft) N 360 12,5 C 29,1 C 7,6 km/h (2 Bft)
19.07.2013 14:30 27,7 C 40 % 1024,1 hPa 0,0 l/m 6,3 km/h (2 Bft) NW 315 12,9 C 28,3 C 3,1 km/h (1 Bft)
19.07.2013 14:35 28,5 C 39 % 1024,1 hPa 0,0 l/m 5,1 km/h (1 Bft) N-NO 22 13,2 C 28,9 C 3,2 km/h (1 Bft)
19.07.2013 14:40 28,7 C 38 % 1024,1 hPa 0,0 l/m 4,2 km/h (1 Bft) N-NW 337 13,0 C 30,3 C 8,7 km/h (2 Bft)
19.07.2013 14:45 28,0 C 39 % 1024,0 hPa 0,0 l/m 5,5 km/h (1 Bft) NW 315 12,7 C 30,3 C 6,0 km/h (2 Bft)
19.07.2013 14:50 27,0 C 39 % 1024,0 hPa 0,0 l/m 7,4 km/h (2 Bft) W-NW 292 11,8 C 28,8 C 10,3 km/h (2 Bft)
19.07.2013 14:55 25,9 C 43 % 1024,0 hPa 0,0 l/m 6,8 km/h (2 Bft) N 360 12,3 C 28,1 C 5,6 km/h (1 Bft)
19.07.2013 15:00 25,0 C 46 % 1024,0 hPa 0,0 l/m 4,3 km/h (1 Bft) O 90 12,6 C 27,2 C 6,3 km/h (2 Bft)
19.07.2013 15:05 26,0 C 43 % 1023,8 hPa 0,0 l/m 3,7 km/h (1 Bft) N-NW 337 12,4 C 27,2 C 9,8 km/h (2 Bft)
19.07.2013 15:10 27,4 C 39 % 1023,8 hPa 0,0 l/m 5,1 km/h (1 Bft) S-SW 202 12,2 C 28,8 C 6,1 km/h (2 Bft)
19.07.2013 15:15 26,6 C 41 % 1023,8 hPa 0,0 l/m 5,8 km/h (2 Bft) W-NW 292 12,2 C 29,0 C 5,8 km/h (2 Bft)
19.07.2013 15:20 25,6 C 43 % 1023,8 hPa 0,0 l/m 5,3 km/h (1 Bft) N-NW 337 12,1 C 27,8 C 5,8 km/h (2 Bft)
19.07.2013 15:25 25,4 C 44 % 1023,6 hPa 0,0 l/m 5,8 km/h (2 Bft) W-NW 292 12,2 C 27,1 C 9,3 km/h (2 Bft)
19.07.2013 15:30 26,3 C 43 % 1023,6 hPa 0,0 l/m 4,7 km/h (1 Bft) W 270 12,7 C 26,9 C 7,4 km/h (2 Bft)
19.07.2013 15:35 26,8 C 41 % 1023,6 hPa 0,0 l/m 4,5 km/h (1 Bft) W-SW 247 12,4 C 28,1 C 10,1 km/h (2 Bft)
19.07.2013 15:40 26,7 C 41 % 1023,6 hPa 0,0 l/m 5,5 km/h (1 Bft) N 360 12,3 C 28,4 C 9,7 km/h (2 Bft)
19.07.2013 15:45 25,5 C 45 % 1023,6 hPa 0,0 l/m 6,1 km/h (2 Bft) W 270 12,7 C 28,2 C 7,9 km/h (2 Bft)
19.07.2013 15:50 25,0 C 47 % 1023,6 hPa 0,0 l/m 5,5 km/h (1 Bft) W-NW 292 12,9 C 27,0 C 5,8 km/h (2 Bft)
19.07.2013 15:55 24,8 C 47 % 1023,6 hPa 0,0 l/m 4,5 km/h (1 Bft) S 180 12,7 C 26,5 C 4,8 km/h (1 Bft)
19.07.2013 16:00 25,2 C 47 % 1023,6 hPa 0,0 l/m 3,9 km/h (1 Bft) W-NW 292 13,1 C 26,3 C 5,0 km/h (1 Bft)
19.07.2013 16:05 26,4 C 43 % 1023,4 hPa 0,0 l/m 4,7 km/h (1 Bft) W-NW 292 12,8 C 26,5 C 11,6 km/h (2 Bft)
19.07.2013 16:10 26,9 C 44 % 1023,4 hPa 0,0 l/m 5,5 km/h (1 Bft) N-NW 337 13,6 C 27,6 C 9,5 km/h (2 Bft)
19.07.2013 16:15 27,3 C 40 % 1023,4 hPa 0,0 l/m 5,8 km/h (2 Bft) W-SW 247 12,5 C 28,4 C 8,0 km/h (2 Bft)
19.07.2013 16:20 27,8 C 39 % 1023,4 hPa 0,0 l/m 5,5 km/h (1 Bft) S-SO 157 12,6 C 29,7 C 1,9 km/h (1 Bft)
19.07.2013 16:25 28,3 C 39 % 1023,2 hPa 0,0 l/m 4,8 km/h (1 Bft) W 270 13,0 C 30,5 C 4,3 km/h (1 Bft)
19.07.2013 16:30 26,1 C 42 % 1023,2 hPa 0,0 l/m 4,3 km/h (1 Bft) W-SW 247 12,2 C 30,3 C 6,3 km/h (2 Bft)
19.07.2013 16:35 26,2 C 43 % 1023,2 hPa 0,0 l/m 3,9 km/h (1 Bft) W 270 12,6 C 29,6 C 3,7 km/h (1 Bft)
19.07.2013 16:40 27,4 C 41 % 1023,2 hPa 0,0 l/m 4,3 km/h (1 Bft) NO 45 13,0 C 29,8 C 6,1 km/h (2 Bft)
19.07.2013 16:45 26,5 C 41 % 1023,1 hPa 0,0 l/m 5,8 km/h (2 Bft) O-SO 112 12,2 C 30,2 C 9,2 km/h (2 Bft)
19.07.2013 16:50 25,6 C 44 % 1023,1 hPa 0,0 l/m 6,9 km/h (2 Bft) W-NW 292 12,4 C 28,5 C 10,8 km/h (2 Bft)
19.07.2013 16:55 25,5 C 45 % 1023,1 hPa 0,0 l/m 6,3 km/h (2 Bft) SO 135 12,7 C 27,5 C 2,3 km/h (1 Bft)
19.07.2013 17:00 25,4 C 46 % 1023,1 hPa 0,0 l/m 3,9 km/h (1 Bft) N-NW 337 12,9 C 27,2 C 6,0 km/h (2 Bft)
19.07.2013 17:05 25,2 C 46 % 1022,9 hPa 0,0 l/m 3,2 km/h (1 Bft) N-NW 337 12,7 C 27,2 C 6,8 km/h (2 Bft)
19.07.2013 17:10 25,2 C 46 % 1022,9 hPa 0,0 l/m 5,3 km/h (1 Bft) NW 315 12,7 C 27,2 C 8,9 km/h (2 Bft)
19.07.2013 17:15 25,4 C 46 % 1022,9 hPa 0,0 l/m 5,6 km/h (1 Bft) W 270 12,9 C 27,0 C 12,1 km/h (2 Bft)
19.07.2013 17:20 25,3 C 46 % 1022,9 hPa 0,0 l/m 6,4 km/h (2 Bft) W 270 12,8 C 26,7 C 10,9 km/h (2 Bft)
19.07.2013 17:25 25,6 C 46 % 1022,7 hPa 0,0 l/m 6,6 km/h (2 Bft) S-SW 202 13,1 C 27,3 C 4,7 km/h (1 Bft)
19.07.2013 17:30 26,0 C 42 % 1022,7 hPa 0,0 l/m 5,3 km/h (1 Bft) W 270 12,1 C 29,0 C 3,4 km/h (1 Bft)
19.07.2013 17:35 25,6 C 45 % 1022,7 hPa 0,0 l/m 5,5 km/h (1 Bft) W-SW 247 12,8 C 29,2 C 4,3 km/h (1 Bft)
19.07.2013 17:40 25,9 C 44 % 1022,7 hPa 0,0 l/m 5,8 km/h (2 Bft) W-NW 292 12,7 C 29,5 C 8,4 km/h (2 Bft)
19.07.2013 17:45 26,0 C 44 % 1022,7 hPa 0,0 l/m 6,4 km/h (2 Bft) W-NW 292 12,8 C 29,8 C 13,0 km/h (3 Bft)
19.07.2013 17:50 25,7 C 47 % 1022,7 hPa 0,0 l/m 6,3 km/h (2 Bft) N-NO 22 13,5 C 29,7 C 15,4 km/h (3 Bft)
19.07.2013 17:55 25,2 C 48 % 1022,7 hPa 0,0 l/m 5,6 km/h (1 Bft) NO 45 13,4 C 29,8 C 5,5 km/h (1 Bft)
19.07.2013 18:00 24,2 C 54 % 1022,7 hPa 0,0 l/m 4,2 km/h (1 Bft) O-SO 112 14,3 C 28,9 C 4,3 km/h (1 Bft)
19.07.2013 18:05 23,5 C 56 % 1022,8 hPa 0,0 l/m 3,9 km/h (1 Bft) S-SO 157 14,2 C 27,3 C 2,1 km/h (1 Bft)
19.07.2013 18:10 22,5 C 59 % 1022,8 hPa 0,0 l/m 4,8 km/h (1 Bft) S 180 14,1 C 24,9 C 7,4 km/h (2 Bft)
19.07.2013 18:15 22,3 C 59 % 1022,8 hPa 0,0 l/m 4,3 km/h (1 Bft) SO 135 13,9 C 24,1 C 1,6 km/h (1 Bft)
19.07.2013 18:20 21,9 C 64 % 1022,8 hPa 0,0 l/m 4,0 km/h (1 Bft) S-SW 202 14,8 C 23,3 C 9,0 km/h (2 Bft)
19.07.2013 18:25 21,7 C 64 % 1023,2 hPa 0,0 l/m 4,5 km/h (1 Bft) SW 225 14,6 C 22,8 C 5,5 km/h (1 Bft)
19.07.2013 18:30 22,2 C 61 % 1023,2 hPa 0,0 l/m 5,6 km/h (1 Bft) S 180 14,3 C 23,0 C 7,2 km/h (2 Bft)
19.07.2013 18:35 22,5 C 59 % 1023,2 hPa 0,0 l/m 5,3 km/h (1 Bft) S-SW 202 14,1 C 24,0 C 8,4 km/h (2 Bft)
19.07.2013 18:40 22,3 C 61 % 1023,2 hPa 0,0 l/m 5,1 km/h (1 Bft) S 180 14,4 C 24,8 C 3,7 km/h (1 Bft)
19.07.2013 18:45 22,6 C 62 % 1022,8 hPa 0,0 l/m 4,8 km/h (1 Bft) S 180 14,9 C 24,6 C 2,9 km/h (1 Bft)
19.07.2013 18:50 22,7 C 59 % 1022,8 hPa 0,0 l/m 3,2 km/h (1 Bft) O-SO 112 14,3 C 26,1 C 4,5 km/h (1 Bft)
19.07.2013 18:55 22,6 C 62 % 1022,8 hPa 0,0 l/m 1,9 km/h (1 Bft) W 270 14,9 C 26,9 C 3,5 km/h (1 Bft)
19.07.2013 19:00 21,9 C 64 % 1022,8 hPa 0,0 l/m 2,4 km/h (1 Bft) N-NW 337 14,8 C 26,3 C 2,7 km/h (1 Bft)
19.07.2013 19:05 21,7 C 62 % 1023,0 hPa 0,0 l/m 3,1 km/h (1 Bft) NO 45 14,1 C 26,0 C 2,3 km/h (1 Bft)
19.07.2013 19:10 21,5 C 65 % 1023,0 hPa 0,0 l/m 2,3 km/h (1 Bft) S-SW 202 14,6 C 24,7 C 3,5 km/h (1 Bft)
19.07.2013 19:15 20,9 C 65 % 1023,0 hPa 0,0 l/m 1,6 km/h (1 Bft) S 180 14,1 C 23,7 C 3,5 km/h (1 Bft)
19.07.2013 19:20 20,3 C 67 % 1023,0 hPa 0,0 l/m 3,2 km/h (1 Bft) S 180 14,0 C 22,3 C 4,5 km/h (1 Bft)
19.07.2013 19:25 19,6 C 71 % 1023,1 hPa 0,0 l/m 3,9 km/h (1 Bft) O-SO 112 14,2 C 21,1 C 6,4 km/h (2 Bft)
19.07.2013 19:30 19,1 C 75 % 1023,1 hPa 0,0 l/m 3,5 km/h (1 Bft) NO 45 14,6 C 19,3 C 4,5 km/h (1 Bft)
19.07.2013 19:35 18,8 C 77 % 1023,1 hPa 0,0 l/m 2,7 km/h (1 Bft) N-NW 337 14,7 C 19,0 C 2,7 km/h (1 Bft)
19.07.2013 19:40 19,1 C 77 % 1023,1 hPa 0,0 l/m 1,9 km/h (1 Bft) O-SO 112 15,0 C 19,2 C 2,4 km/h (1 Bft)
19.07.2013 19:45 19,1 C 78 % 1022,8 hPa 0,0 l/m 1,6 km/h (1 Bft) N-NW 337 15,2 C 20,1 C 0,0 km/h (0 Bft)
19.07.2013 19:50 18,9 C 79 % 1022,8 hPa 0,0 l/m 2,1 km/h (1 Bft) S 180 15,2 C 20,0 C 3,2 km/h (1 Bft)
19.07.2013 19:55 19,0 C 79 % 1022,8 hPa 0,0 l/m 2,3 km/h (1 Bft) S 180 15,3 C 20,1 C 2,1 km/h (1 Bft)
19.07.2013 20:00 19,1 C 79 % 1022,8 hPa 0,0 l/m 2,1 km/h (1 Bft) W 270 15,4 C 20,3 C 3,4 km/h (1 Bft)
19.07.2013 20:05 19,2 C 79 % 1023,0 hPa 0,0 l/m 2,1 km/h (1 Bft) S-SW 202 15,5 C 20,3 C 6,6 km/h (2 Bft)
19.07.2013 20:10 19,0 C 78 % 1023,0 hPa 0,0 l/m 4,2 km/h (1 Bft) NO 45 15,1 C 20,6 C 7,4 km/h (2 Bft)
19.07.2013 20:15 19,0 C 80 % 1023,0 hPa 0,0 l/m 4,3 km/h (1 Bft) N-NW 337 15,5 C 20,0 C 0,0 km/h (0 Bft)
19.07.2013 20:20 17,7 C 85 % 1023,0 hPa 0,0 l/m 4,2 km/h (1 Bft) O 90 15,1 C 18,8 C 10,6 km/h (2 Bft)
19.07.2013 20:25 17,3 C 87 % 1022,9 hPa 0,7 l/m 4,7 km/h (1 Bft) O 90 15,1 C 18,1 C 7,1 km/h (2 Bft)
19.07.2013 20:30 17,3 C 88 % 1022,9 hPa 0,0 l/m 4,8 km/h (1 Bft) W-SW 247 15,3 C 17,8 C 2,7 km/h (1 Bft)
19.07.2013 20:35 17,3 C 89 % 1022,9 hPa 0,0 l/m 3,1 km/h (1 Bft) W 270 15,5 C 17,7 C 0,0 km/h (0 Bft)
19.07.2013 20:40 17,2 C 89 % 1022,9 hPa 0,0 l/m 1,8 km/h (1 Bft) N-NO 22 15,4 C 17,8 C 0,0 km/h (0 Bft)
19.07.2013 20:45 17,1 C 89 % 1022,9 hPa 0,0 l/m 1,1 km/h (1 Bft) W-SW 247 15,3 C 18,1 C 2,3 km/h (1 Bft)
19.07.2013 20:50 17,1 C 90 % 1022,9 hPa 0,0 l/m 1,3 km/h (1 Bft) O-SO 112 15,4 C 18,3 C 1,8 km/h (1 Bft)
19.07.2013 20:55 17,0 C 90 % 1022,9 hPa 0,0 l/m 1,6 km/h (1 Bft) S 180 15,3 C 18,3 C 1,9 km/h (1 Bft)
19.07.2013 21:00 16,9 C 90 % 1022,9 hPa 0,0 l/m 2,4 km/h (1 Bft) NO 45 15,2 C 18,1 C 1,8 km/h (1 Bft)
19.07.2013 21:05 16,8 C 90 % 1023,2 hPa 0,0 l/m 3,7 km/h (1 Bft) O 90 15,1 C 17,8 C 7,6 km/h (2 Bft)
19.07.2013 21:10 16,7 C 90 % 1023,2 hPa 0,7 l/m 2,9 km/h (1 Bft) S-SW 202 15,0 C 17,3 C 2,6 km/h (1 Bft)
19.07.2013 21:15 16,5 C 90 % 1023,2 hPa 0,0 l/m 1,9 km/h (1 Bft) O-NO 67 14,9 C 16,9 C 0,0 km/h (0 Bft)
19.07.2013 21:20 16,2 C 90 % 1023,2 hPa 1,4 l/m 2,6 km/h (1 Bft) O-NO 67 14,6 C 16,5 C 6,4 km/h (2 Bft)
19.07.2013 21:25 16,1 C 90 % 1023,2 hPa 0,0 l/m 4,0 km/h (1 Bft) O 90 14,5 C 16,3 C 4,3 km/h (1 Bft)
19.07.2013 21:30 16,0 C 91 % 1023,2 hPa 0,0 l/m 3,5 km/h (1 Bft) S 180 14,5 C 16,1 C 3,4 km/h (1 Bft)
19.07.2013 21:35 16,1 C 91 % 1023,2 hPa 0,0 l/m 1,6 km/h (1 Bft) S-SO 157 14,6 C 16,1 C 3,5 km/h (1 Bft)
19.07.2013 21:40 16,0 C 91 % 1023,2 hPa 0,0 l/m 1,9 km/h (1 Bft) NO 45 14,5 C 16,0 C 0,0 km/h (0 Bft)
19.07.2013 21:45 16,0 C 91 % 1023,1 hPa 0,0 l/m 1,6 km/h (1 Bft) NO 45 14,5 C 15,9 C 1,9 km/h (1 Bft)
19.07.2013 21:50 15,9 C 93 % 1023,1 hPa 0,0 l/m 0,3 km/h (0 Bft) S-SW 202 14,8 C 15,8 C 0,0 km/h (0 Bft)
19.07.2013 21:55 15,9 C 93 % 1023,1 hPa 0,0 l/m 0,6 km/h (0 Bft) S-SO 157 14,8 C 15,8 C 2,6 km/h (1 Bft)
19.07.2013 22:00 15,8 C 93 % 1023,1 hPa 0,0 l/m 1,4 km/h (1 Bft) SO 135 14,7 C 15,8 C 2,1 km/h (1 Bft)
19.07.2013 22:05 15,8 C 93 % 1023,2 hPa 0,0 l/m 1,8 km/h (1 Bft) S-SO 157 14,7 C 15,8 C 1,6 km/h (1 Bft)
19.07.2013 22:10 15,8 C 93 % 1023,2 hPa 0,0 l/m 1,4 km/h (1 Bft) O 90 14,7 C 15,8 C 0,0 km/h (0 Bft)
19.07.2013 22:15 15,7 C 93 % 1023,2 hPa 0,0 l/m 1,1 km/h (1 Bft) W-SW 247 14,6 C 15,8 C 2,3 km/h (1 Bft)
19.07.2013 22:20 15,7 C 93 % 1023,2 hPa 0,0 l/m 0,6 km/h (0 Bft) S-SW 202 14,6 C 15,7 C 0,0 km/h (0 Bft)
19.07.2013 22:25 15,6 C 93 % 1023,2 hPa 0,0 l/m 0,2 km/h (0 Bft) S-SO 157 14,5 C 15,7 C 0,0 km/h (0 Bft)
19.07.2013 22:30 15,5 C 93 % 1023,2 hPa 0,0 l/m 0,0 km/h (0 Bft) S-SW 202 14,4 C 15,6 C 0,0 km/h (0 Bft)
19.07.2013 22:35 15,3 C 93 % 1023,2 hPa 0,0 l/m 0,0 km/h (0 Bft) O-SO 112 14,2 C 15,5 C 0,0 km/h (0 Bft)
19.07.2013 22:40 15,2 C 93 % 1023,2 hPa 0,0 l/m 0,0 km/h (0 Bft) S-SW 202 14,1 C 15,4 C 0,0 km/h (0 Bft)
19.07.2013 22:45 15,3 C 94 % 1023,1 hPa 0,0 l/m 0,0 km/h (0 Bft) W-SW 247 14,3 C 15,4 C 0,0 km/h (0 Bft)
19.07.2013 22:50 15,3 C 93 % 1023,1 hPa 0,0 l/m 0,0 km/h (0 Bft) SW 225 14,2 C 15,4 C 0,0 km/h (0 Bft)
19.07.2013 22:55 15,3 C 94 % 1023,1 hPa 0,0 l/m 0,2 km/h (0 Bft) S-SW 202 14,3 C 15,4 C 2,6 km/h (1 Bft)
19.07.2013 23:00 15,2 C 94 % 1023,1 hPa 0,0 l/m 1,0 km/h (0 Bft) W-SW 247 14,2 C 15,3 C 1,6 km/h (1 Bft)
19.07.2013 23:05 15,3 C 94 % 1023,1 hPa 0,0 l/m 1,3 km/h (1 Bft) SW 225 14,3 C 15,3 C 0,0 km/h (0 Bft)
19.07.2013 23:10 15,3 C 94 % 1023,1 hPa 0,0 l/m 0,5 km/h (0 Bft) S 180 14,3 C 15,3 C 0,0 km/h (0 Bft)
19.07.2013 23:15 15,3 C 94 % 1023,1 hPa 0,0 l/m 0,5 km/h (0 Bft) S 180 14,3 C 15,4 C 0,0 km/h (0 Bft)
19.07.2013 23:20 15,3 C 94 % 1023,1 hPa 0,0 l/m 0,6 km/h (0 Bft) S 180 14,3 C 15,4 C 2,4 km/h (1 Bft)
19.07.2013 23:25 15,2 C 94 % 1023,1 hPa 0,0 l/m 0,6 km/h (0 Bft) S-SW 202 14,2 C 15,3 C 0,0 km/h (0 Bft)
19.07.2013 23:30 15,0 C 94 % 1023,1 hPa 0,0 l/m 0,8 km/h (0 Bft) O 90 14,0 C 15,2 C 0,0 km/h (0 Bft)
19.07.2013 23:35 14,9 C 94 % 1023,1 hPa 0,0 l/m 0,5 km/h (0 Bft) O 90 13,9 C 15,0 C 0,0 km/h (0 Bft)
19.07.2013 23:40 14,9 C 94 % 1023,1 hPa 0,0 l/m 0,3 km/h (0 Bft) O 90 13,9 C 14,9 C 0,0 km/h (0 Bft)
19.07.2013 23:45 14,9 C 94 % 1023,2 hPa 0,0 l/m 0,5 km/h (0 Bft) S-SW 202 13,9 C 14,9 C 2,1 km/h (1 Bft)
19.07.2013 23:50 14,7 C 94 % 1023,2 hPa 0,0 l/m 1,0 km/h (0 Bft) S-SW 202 13,7 C 14,9 C 0,0 km/h (0 Bft)
19.07.2013 23:55 14,7 C 94 % 1023,2 hPa 0,0 l/m 1,0 km/h (0 Bft) S 180 13,7 C 14,9 C 2,4 km/h (1 Bft)
_ Min-Zeit 05:25 14:40 18:00 - 22:50 - - 03:25 05:45 23:50
Minimum _ 12,1 C 38 % 1022,7 hPa - 0,0 km/h (0 Bft) - - 9,0 C 11,7 C 0,0 km/h (0 Bft)
_ Max-Zeit 14:40 23:55 12:15 21:20 14:50 - - 20:35 16:25 14:17
Maximum _ 28,7 C 94 % 1024,4 hPa 1,4 l/m 7,4 km/h
W-NW (2 Bft)
- - 15,5 C 30,5 C 16,7 km/h
W (3 Bft)
Durchschnitt _ 20,3 C 64 % 1023,5 hPa #2,7 l/m 2,4 km/h (1 Bft) W-NW - 12,5 C 21,2 C 3,3 km/h (1 Bft)